SCP
-0 -0 -0 -0 -0 -0 0 0 0 0 -0 0 -0 -0 -0 0 0 0 0 0 0 0 -0 0 0 0 0 0 0 0 0 0 -0 0 0 0 0 0 0 0 0 0 0 -0
-0 -0 -0 -0 0 -0 0 0 0 0 -0 0 -0 0 -0 0 0 0 0 0 0 0 0 0 0 0 0 0 0 0 0 0 0 0 0 0 0 0 0 0 0 -0 0 0
-0 -0 -0 0 0 0 -0 0 0 0 0 0 0 0 0 0 0 0 0 0 0 0 0 0 0 0 0 0 0 0 0 0 0 0 -0 0 0 0 0 0 0 0 -0 -0
0 -0 -0 0 0 0 -0 0 0 0 0 0 0 0 0 0 0 0 0 0 0 0 0 0 0 0 0 0 0 0 0 0 0 0 -0 0 0 0 0 0 0 0 -0 0
0 0 0 -0 0 -0 0 0 0 0 0 0 0 0 0 0 0 -0 0 0 0 0 0 0 0 0 0 0 0 0 0 0 0 0 0 0 -0 -0 0 0 -0 0 0 0
0 0 0 0 0 0 0 0 0 0 0 0 0 0 0 0 0 0 -0 0 0 0 0 0 0 -0 -0 -0 0 0 0 0 0 0 0 0 0 0 0 0 0 0 0 0
0 0 0 0 0 0 0 0 0 0 0 0 1 0 -0 0 0 0 0 0 0 0 0 0 0 0 0 0 0 0 0 0 0 0 0 0 0 0 0 0 0 0 0 0
0 0 0 0 0 0 0 0 0 0 0 0 0 0 0 0 0 0 0 0 0 0 0 0 0 0 0 0 0 0 0 0 0 0 0 0 0 0 0 0 0 0 0 0
0 0 0 0 0 0 0 0 0 0 0 0 0 0 0 0 0 0 0 0 0 0 0 0 0 0 0 0 0 0 0 0 0 0 0 0 0 0 0 0 0 0 0 0
0 0 0 0 0 0 0 0 0 0 0 0 0 0 0 0 0 0 0 0 0 0 0 0 0 0 0 0 0 0 0 0 0 0 0 0 0 0 0 0 0 0 0 0
0 0 0 0 0 0 0 0 0 0 0 0 0 0 0 0 0 0 0 0 0 0 0 0 0 0 0 0 0 0 0 0 0 0 0 0 0 0 0 0 0 0 0 0
0 0 0 0 0 0 0 0 0 0 0 0 0 0 0 0 0 0 0 0 0 0 0 0 0 0 0 0 0 0 0 0 0 0 0 0 0 0 0 0 0 0 0 0
0 0 0 0 0 0 0 0 0 0 0 0 0 0 0 0 0 0 0 0 0 0 0 0 0 0 0 0 0 0 0 0 0 0 0 0 0 0 0 0 0 0 0 0
0 0 0 0 0 0 0 0 0 0 0 0 0 0 0 0 0 0 0 0 0 0 0 0 0 0 0 0 0 0 0 0 0 0 0 0 0 0 0 0 0 0 0 0
0 0 0 0 0 0 0 0 0 0 0 0 0 0 0 0 0 0 0 0 0 0 0 0 0 0 0 0 0 0 0 0 0 0 0 0 0 0 0 0 0 0 0 0
0 0 0 0 0 0 0 0 0 0 0 0 0 0 0 0 0 0 0 0 0 0 0 0 0 0 0 0 0 0 0 0 0 0 0 0 0 0 0 0 0 0 0 0
0 0 0 0 0 0 0 0 0 0 0 0 0 0 0 0 0 0 0 0 0 0 0 0 0 0 0 0 0 0 0 0 0 0 0 0 0 0 0 0 0 0 0 0
0 0 0 0 0 0 0 0 0 0 0 0 0 0 0 -0 0 0 0 0 0 0 0 0 0 0 0 0 0 0 0 0 0 0 0 0 0 0 0 0 0 0 0 0
0 0 0 0 0 0 0 0 0 0 0 0 0 0 0 -0 -0 0 0 0 0 0 0 0 0 0 0 0 0 0 0 0 0 0 0 0 0 0 0 0 0 0 0 0
0 0 0 0 0 0 0 0 0 0 0 0 0 0 0 0 -0 0 0 0 0 0 0 0 0 0 0 0 0 0 0 0 0 0 0 0 0 0 0 0 0 0 0 0
0 0 0 0 0 0 0 0 0 0 0 0 -0 0 0 0 0 0 0 0 0 0 0 0 0 0 0 0 0 0 0 0 0 0 0 0 0 0 0 0 0 0 0 0
0 0 0 0 0 0 0 0 0 0 0 0 0 0 0 0 0 0 0 0 0 0 0 0 0 0 0 0 0 0 0 0 0 0 0 0 0 0 0 0 0 0 0 0
0 0 0 0 0 0 0 0 0 0 0 0 0 0 0 0 0 0 0 0 0 0 0 0 0 0 0 0 0 0 0 0 0 0 0 0 0 0 0 0 0 0 0 0
0 0 0 0 0 0 0 0 0 0 0 0 0 0 0 0 0 0 0 0 0 0 0 0 0 0 0 0 0 0 0 0 0 0 0 0 0 0 0 0 0 0 0 0
0 0 0 0 0 0 0 0 -0 -0 0 0 0 0 0 0 0 0 0 0 0 0 0 0 0 0 0 0 0 0 0 0 0 0 0 0 0 0 0 0 0 0 0 -0
0 0 0 0 0 0 0 0 0 0 0 0 0 0 0 0 0 0 0 0 0 0 0 0 0 0 0 0 0 0 0 0 0 0 0 0 0 0 0 -0 0 0 0 0
0 0 0 0 0 0 0 0 0 0 0 0 0 0 0 0 0 0 0 0 0 -0 -0 0 0 0 0 0 0 0 0 0 0 0 0 0 0 0 0 0 0 0 0 0
Wind_Speed_500mb
42 43 46 49 47 30 11 2 7 35 43 19 15 14 11 42 56 10 7 8 12 13 24 20 17 12 13 27 18 6 6 2 5 14 14 15 15 12 10 7 9 5 12 9
41 39 42 44 48 43 25 10 19 26 40 9 18 28 36 52 27 14 7 11 13 14 2 11 9 11 15 22 15 6 10 9 8 19 12 19 8 10 12 28 6 7 8 9
38 37 38 38 41 40 27 9 6 14 38 38 22 25 23 17 15 18 30 11 16 12 6 11 15 16 9 33 14 9 10 5 4 8 8 5 10 26 35 11 8 13 4 13
36 35 36 36 35 37 17 7 9 20 9 19 25 24 25 34 16 14 28 17 17 8 10 9 2 23 16 21 9 6 5 2 9 17 15 9 10 9 27 23 17 7 12 17
33 32 33 37 33 32 2 10 14 20 29 36 19 21 18 28 20 13 8 11 23 18 3 11 15 16 10 14 3 5 5 7 11 15 15 15 6 13 22 19 40 10 34 23
30 29 28 32 31 24 6 16 15 12 27 12 14 13 25 26 23 16 27 10 10 16 17 39 30 26 26 16 14 4 5 5 7 8 17 16 10 10 11 11 31 14 15 10
29 26 23 24 27 27 23 14 20 12 11 18 19 32 27 25 16 11 10 38 21 19 16 10 9 25 28 24 10 7 4 9 6 4 12 11 3 29 24 42 33 32 24 16
26 24 20 18 20 20 18 9 11 12 10 33 29 43 27 13 11 6 29 30 18 9 8 8 7 8 9 8 10 10 16 10 4 3 4 14 13 20 17 13 24 27 25 28
24 22 17 16 18 16 12 6 9 12 14 6 40 38 32 6 6 7 9 15 11 12 5 3 5 3 5 2 5 14 17 14 8 5 3 3 7 19 26 21 10 30 37 31
22 20 17 14 16 16 12 10 3 8 14 19 39 18 18 35 24 4 8 10 4 1 2 4 1 4 3 3 2 4 5 6 4 6 9 10 12 33 28 7 1 31 35 35
21 18 16 13 13 15 10 10 8 8 12 33 21 25 28 24 29 7 22 13 6 3 5 2 3 1 3 8 9 5 4 6 6 8 12 5 29 22 11 7 30 31 32 34
20 16 16 13 11 12 10 9 6 7 19 21 11 14 12 9 16 23 23 6 16 17 8 9 5 4 9 8 2 7 7 8 9 9 7 21 37 39 36 31 31 31 31 32
19 17 18 14 13 12 12 8 8 11 13 28 25 15 10 7 8 6 11 15 18 20 14 5 3 7 6 5 3 7 10 12 8 11 13 31 40 33 29 24 20 22 27 35
22 20 19 16 16 14 14 13 4 9 16 9 8 19 5 9 5 8 2 8 8 14 15 8 3 2 7 1 6 5 4 6 13 12 14 37 32 24 19 19 19 29 34 41
27 23 20 18 18 16 14 13 12 8 19 10 14 12 6 2 6 3 5 9 9 7 3 4 3 7 9 4 6 6 7 2 6 6 15 15 17 18 19 26 26 27 34 19
28 23 20 17 17 15 8 4 11 11 18 5 6 19 16 7 6 1 5 12 14 9 6 6 12 8 8 2 5 15 43 36 29 21 18 17 11 25 25 24 29 28 28 34
26 21 18 17 19 19 13 4 4 18 20 7 9 11 15 10 9 8 3 5 7 1 1 4 11 6 8 2 5 31 35 32 23 19 17 16 26 21 22 24 21 26 30 35
19 17 16 15 17 16 18 14 6 7 11 9 6 5 13 22 14 9 11 9 3 4 9 7 9 10 5 5 24 36 27 18 22 21 17 27 20 19 23 22 29 32 35 38
13 13 12 13 13 11 12 8 5 9 8 9 6 3 6 23 19 17 8 4 4 6 1 4 11 6 6 22 36 33 22 18 15 11 16 18 21 20 22 24 31 29 33 39
16 20 8 8 12 11 12 9 5 6 9 9 8 10 4 23 18 10 11 3 3 5 8 12 3 5 30 39 41 36 27 18 9 9 13 11 17 16 22 21 21 24 28 31
14 2 8 4 24 14 7 13 11 16 9 14 12 17 7 31 9 6 11 6 5 2 7 8 9 8 22 41 37 29 21 13 19 15 15 13 12 14 15 19 18 21 28 30
15 10 7 15 11 11 10 8 8 11 10 15 28 24 18 10 10 9 4 5 4 3 14 2 4 5 48 40 32 25 19 12 14 17 19 14 12 13 15 12 19 23 24 26
9 6 6 11 15 5 11 15 9 7 21 18 35 11 11 9 7 10 4 4 5 22 4 4 5 36 43 40 33 24 18 18 18 23 19 10 14 17 20 17 16 19 18 26
5 7 6 7 11 11 9 9 12 20 20 41 43 26 9 8 4 7 5 8 4 6 7 4 16 40 39 31 22 17 22 20 26 25 16 16 20 19 15 14 18 24 31 33
6 8 8 14 23 18 36 37 35 29 35 37 25 17 13 6 4 2 4 5 7 8 1 10 40 45 35 25 18 25 25 25 27 26 16 17 17 13 9 14 12 15 24 28
7 12 10 23 15 16 11 44 30 38 43 37 25 7 7 4 7 4 7 4 9 8 10 44 51 39 26 21 20 23 26 23 18 22 16 12 13 8 9 5 5 13 17 22
9 8 12 21 31 18 32 30 22 49 40 10 10 8 10 7 5 9 9 3 13 46 45 43 39 34 26 23 24 26 25 21 20 15 11 12 11 11 11 8 3 11 13 14
Wind_Direction_500mb
339 342 345 345 344 358 347 328 271 162 161 176 222 234 249 272 292 355 338 304 5 223 175 172 209 51 219 164 90 37 297 278 353 261 24 59 47 10 35 101 294 163 135 264
337 339 343 345 347 352 354 303 282 174 181 203 240 251 244 254 279 322 326 310 233 324 290 129 170 91 66 62 62 84 2 330 345 329 17 350 32 342 348 346 352 283 117 245
333 335 338 343 343 343 341 309 270 166 210 240 284 300 287 277 265 303 317 259 310 315 64 123 124 133 98 84 104 128 102 300 108 225 307 104 24 353 350 21 351 315 16 188
329 331 334 338 340 335 335 231 272 317 213 226 234 262 284 304 269 230 311 342 323 316 359 77 25 121 131 102 84 48 95 288 308 306 116 125 150 43 335 306 257 161 63 71
324 328 333 337 344 346 333 315 349 333 300 267 214 240 272 288 239 199 211 278 289 309 293 118 65 82 67 83 231 147 300 279 358 315 340 112 146 241 227 243 261 182 106 124
318 323 330 339 348 6 343 356 312 343 281 303 199 227 261 276 297 304 189 155 325 22 52 71 83 181 160 161 154 94 12 54 50 316 352 354 359 275 244 66 41 61 74 102
312 316 324 337 346 1 1 7 355 308 296 334 337 323 221 256 281 320 343 82 60 358 6 92 51 15 26 16 49 90 66 58 53 327 3 338 345 17 62 67 42 31 64 70
305 307 312 324 334 340 346 39 22 321 304 331 337 337 308 14 174 2 66 47 62 19 336 5 48 8 3 271 258 119 108 94 19 111 284 281 39 18 21 77 40 26 41 41
298 297 301 310 322 329 327 118 64 303 314 271 327 323 348 34 320 356 99 73 62 35 360 19 129 154 201 249 325 102 96 116 125 339 4 296 8 16 0 346 29 17 38 28
291 289 291 298 314 324 332 176 85 351 281 286 337 5 0 12 3 354 214 133 41 227 338 319 299 294 280 209 96 83 79 89 165 265 221 73 354 8 313 28 201 29 21 15
290 282 282 286 304 315 321 165 59 4 289 279 345 7 18 6 24 8 330 81 313 320 161 125 290 8 271 45 55 53 120 101 27 18 32 57 22 37 76 88 43 33 21 9
288 278 275 272 283 297 308 211 127 244 263 257 314 322 297 12 11 359 334 78 40 36 33 17 26 18 26 32 294 56 46 132 137 122 158 110 81 79 62 52 36 11 353 344
285 274 269 260 261 277 288 281 7 23 275 300 268 285 213 121 6 8 350 8 39 77 55 31 351 55 76 24 37 39 31 29 85 88 26 78 70 60 45 26 1 355 35 5
284 273 265 256 248 261 271 257 152 8 310 267 234 177 183 214 18 324 116 22 52 55 53 47 70 89 43 241 153 96 143 135 140 98 51 86 58 44 18 7 24 17 360 349
286 269 261 256 244 254 263 263 155 5 292 311 292 174 194 334 177 138 241 214 222 145 121 61 265 49 32 46 78 57 67 354 88 127 97 79 46 18 25 46 25 360 348 41
280 264 258 253 239 245 260 163 228 210 228 277 285 117 135 110 60 310 193 226 214 180 195 235 104 82 78 83 123 115 98 85 101 109 89 69 34 65 48 21 2 17 38 11
271 255 249 241 230 231 230 246 184 217 228 245 271 144 158 169 181 184 109 71 123 174 291 47 94 96 97 15 109 109 102 103 99 103 80 52 65 46 17 23 18 1 349 353
257 241 236 226 221 237 251 244 270 202 197 250 274 114 145 182 214 158 170 180 88 348 1 87 87 123 110 81 118 114 109 112 92 73 57 83 64 33 31 16 357 355 354 352
226 208 204 189 204 199 214 211 254 200 208 303 269 210 126 182 223 139 182 227 152 105 346 173 144 191 178 146 136 132 131 102 85 56 72 56 36 31 35 5 360 11 360 352
181 163 169 201 190 159 153 188 177 192 215 243 257 310 172 178 214 150 134 239 169 170 204 109 89 92 119 135 133 127 118 111 95 95 60 31 64 53 30 27 16 4 3 6
151 217 234 160 166 174 213 202 207 196 208 212 241 257 315 185 179 169 154 167 250 130 207 142 198 135 138 135 124 122 120 105 108 106 87 103 86 46 35 42 28 34 41 51
179 227 238 141 187 209 214 201 215 179 208 198 190 214 223 222 141 82 34 176 54 21 156 222 151 120 142 140 141 144 139 139 112 100 111 87 54 33 70 62 64 60 54 39
179 236 241 189 194 187 206 201 177 213 165 192 175 188 188 85 109 90 162 242 197 135 194 202 114 147 150 155 149 151 152 153 114 127 117 92 61 75 85 76 65 60 41 43
210 232 275 201 202 203 227 226 207 204 214 155 173 182 114 122 142 137 208 191 179 201 221 179 147 146 137 137 144 153 152 134 133 126 117 90 88 83 73 84 47 40 30 36
257 266 227 224 252 256 205 229 234 240 166 158 165 110 107 144 153 210 62 131 223 216 63 125 141 141 144 153 148 154 141 129 137 130 114 92 87 91 63 67 44 51 35 31
249 235 288 315 317 307 278 224 220 169 151 171 139 109 88 119 151 213 185 237 216 121 125 129 139 140 140 146 156 140 140 139 149 138 115 105 106 77 54 83 24 13 25 30
262 219 280 294 289 308 310 322 304 154 158 158 109 120 177 179 220 177 184 242 117 118 124 132 142 147 151 155 147 145 137 136 157 120 98 134 106 142 90 83 92 59 9 34
Wind_Speed_850mb
42 43 46 49 47 30 11 2 7 35 43 19 15 14 11 42 56 10 7 8 12 13 24 20 17 12 13 27 18 6 6 2 5 14 14 15 15 12 10 7 9 5 12 9
41 39 42 44 48 43 25 10 19 26 40 9 18 28 36 52 27 14 7 11 13 14 2 11 9 11 15 22 15 6 10 9 8 19 12 19 8 10 12 28 6 7 8 9
38 37 38 38 41 40 27 9 6 14 38 38 22 25 23 17 15 18 30 11 16 12 6 11 15 16 9 33 14 9 10 5 4 8 8 5 10 26 35 11 8 13 4 13
36 35 36 36 35 37 17 7 9 20 9 19 25 24 25 34 16 14 28 17 17 8 10 9 2 23 16 21 9 6 5 2 9 17 15 9 10 9 27 23 17 7 12 17
33 32 33 37 33 32 2 10 14 20 29 36 19 21 18 28 20 13 8 11 23 18 3 11 15 16 10 14 3 5 5 7 11 15 15 15 6 13 22 19 40 10 34 23
30 29 28 32 31 24 6 16 15 12 27 12 14 13 25 26 23 16 27 10 10 16 17 39 30 26 26 16 14 4 5 5 7 8 17 16 10 10 11 11 31 14 15 10
29 26 23 24 27 27 23 14 20 12 11 18 19 32 27 25 16 11 10 38 21 19 16 10 9 25 28 24 10 7 4 9 6 4 12 11 3 29 24 42 33 32 24 16
26 24 20 18 20 20 18 9 11 12 10 33 29 43 27 13 11 6 29 30 18 9 8 8 7 8 9 8 10 10 16 10 4 3 4 14 13 20 17 13 24 27 25 28
24 22 17 16 18 16 12 6 9 12 14 6 40 38 32 6 6 7 9 15 11 12 5 3 5 3 5 2 5 14 17 14 8 5 3 3 7 19 26 21 10 30 37 31
22 20 17 14 16 16 12 10 3 8 14 19 39 18 18 35 24 4 8 10 4 1 2 4 1 4 3 3 2 4 5 6 4 6 9 10 12 33 28 7 1 31 35 35
21 18 16 13 13 15 10 10 8 8 12 33 21 25 28 24 29 7 22 13 6 3 5 2 3 1 3 8 9 5 4 6 6 8 12 5 29 22 11 7 30 31 32 34
20 16 16 13 11 12 10 9 6 7 19 21 11 14 12 9 16 23 23 6 16 17 8 9 5 4 9 8 2 7 7 8 9 9 7 21 37 39 36 31 31 31 31 32
19 17 18 14 13 12 12 8 8 11 13 28 25 15 10 7 8 6 11 15 18 20 14 5 3 7 6 5 3 7 10 12 8 11 13 31 40 33 29 24 20 22 27 35
22 20 19 16 16 14 14 13 4 9 16 9 8 19 5 9 5 8 2 8 8 14 15 8 3 2 7 1 6 5 4 6 13 12 14 37 32 24 19 19 19 29 34 41
27 23 20 18 18 16 14 13 12 8 19 10 14 12 6 2 6 3 5 9 9 7 3 4 3 7 9 4 6 6 7 2 6 6 15 15 17 18 19 26 26 27 34 19
28 23 20 17 17 15 8 4 11 11 18 5 6 19 16 7 6 1 5 12 14 9 6 6 12 8 8 2 5 15 43 36 29 21 18 17 11 25 25 24 29 28 28 34
26 21 18 17 19 19 13 4 4 18 20 7 9 11 15 10 9 8 3 5 7 1 1 4 11 6 8 2 5 31 35 32 23 19 17 16 26 21 22 24 21 26 30 35
19 17 16 15 17 16 18 14 6 7 11 9 6 5 13 22 14 9 11 9 3 4 9 7 9 10 5 5 24 36 27 18 22 21 17 27 20 19 23 22 29 32 35 38
13 13 12 13 13 11 12 8 5 9 8 9 6 3 6 23 19 17 8 4 4 6 1 4 11 6 6 22 36 33 22 18 15 11 16 18 21 20 22 24 31 29 33 39
16 20 8 8 12 11 12 9 5 6 9 9 8 10 4 23 18 10 11 3 3 5 8 12 3 5 30 39 41 36 27 18 9 9 13 11 17 16 22 21 21 24 28 31
14 2 8 4 24 14 7 13 11 16 9 14 12 17 7 31 9 6 11 6 5 2 7 8 9 8 22 41 37 29 21 13 19 15 15 13 12 14 15 19 18 21 28 30
15 10 7 15 11 11 10 8 8 11 10 15 28 24 18 10 10 9 4 5 4 3 14 2 4 5 48 40 32 25 19 12 14 17 19 14 12 13 15 12 19 23 24 26
9 6 6 11 15 5 11 15 9 7 21 18 35 11 11 9 7 10 4 4 5 22 4 4 5 36 43 40 33 24 18 18 18 23 19 10 14 17 20 17 16 19 18 26
5 7 6 7 11 11 9 9 12 20 20 41 43 26 9 8 4 7 5 8 4 6 7 4 16 40 39 31 22 17 22 20 26 25 16 16 20 19 15 14 18 24 31 33
6 8 8 14 23 18 36 37 35 29 35 37 25 17 13 6 4 2 4 5 7 8 1 10 40 45 35 25 18 25 25 25 27 26 16 17 17 13 9 14 12 15 24 28
7 12 10 23 15 16 11 44 30 38 43 37 25 7 7 4 7 4 7 4 9 8 10 44 51 39 26 21 20 23 26 23 18 22 16 12 13 8 9 5 5 13 17 22
9 8 12 21 31 18 32 30 22 49 40 10 10 8 10 7 5 9 9 3 13 46 45 43 39 34 26 23 24 26 25 21 20 15 11 12 11 11 11 8 3 11 13 14
Wind_Direction_850mb
339 342 345 345 344 358 347 328 271 162 161 176 222 234 249 272 292 355 338 304 5 223 175 172 209 51 219 164 90 37 297 278 353 261 24 59 47 10 35 101 294 163 135 264
337 339 343 345 347 352 354 303 282 174 181 203 240 251 244 254 279 322 326 310 233 324 290 129 170 91 66 62 62 84 2 330 345 329 17 350 32 342 348 346 352 283 117 245
333 335 338 343 343 343 341 309 270 166 210 240 284 300 287 277 265 303 317 259 310 315 64 123 124 133 98 84 104 128 102 300 108 225 307 104 24 353 350 21 351 315 16 188
329 331 334 338 340 335 335 231 272 317 213 226 234 262 284 304 269 230 311 342 323 316 359 77 25 121 131 102 84 48 95 288 308 306 116 125 150 43 335 306 257 161 63 71
324 328 333 337 344 346 333 315 349 333 300 267 214 240 272 288 239 199 211 278 289 309 293 118 65 82 67 83 231 147 300 279 358 315 340 112 146 241 227 243 261 182 106 124
318 323 330 339 348 6 343 356 312 343 281 303 199 227 261 276 297 304 189 155 325 22 52 71 83 181 160 161 154 94 12 54 50 316 352 354 359 275 244 66 41 61 74 102
312 316 324 337 346 1 1 7 355 308 296 334 337 323 221 256 281 320 343 82 60 358 6 92 51 15 26 16 49 90 66 58 53 327 3 338 345 17 62 67 42 31 64 70
305 307 312 324 334 340 346 39 22 321 304 331 337 337 308 14 174 2 66 47 62 19 336 5 48 8 3 271 258 119 108 94 19 111 284 281 39 18 21 77 40 26 41 41
298 297 301 310 322 329 327 118 64 303 314 271 327 323 348 34 320 356 99 73 62 35 360 19 129 154 201 249 325 102 96 116 125 339 4 296 8 16 0 346 29 17 38 28
291 289 291 298 314 324 332 176 85 351 281 286 337 5 0 12 3 354 214 133 41 227 338 319 299 294 280 209 96 83 79 89 165 265 221 73 354 8 313 28 201 29 21 15
290 282 282 286 304 315 321 165 59 4 289 279 345 7 18 6 24 8 330 81 313 320 161 125 290 8 271 45 55 53 120 101 27 18 32 57 22 37 76 88 43 33 21 9
288 278 275 272 283 297 308 211 127 244 263 257 314 322 297 12 11 359 334 78 40 36 33 17 26 18 26 32 294 56 46 132 137 122 158 110 81 79 62 52 36 11 353 344
285 274 269 260 261 277 288 281 7 23 275 300 268 285 213 121 6 8 350 8 39 77 55 31 351 55 76 24 37 39 31 29 85 88 26 78 70 60 45 26 1 355 35 5
284 273 265 256 248 261 271 257 152 8 310 267 234 177 183 214 18 324 116 22 52 55 53 47 70 89 43 241 153 96 143 135 140 98 51 86 58 44 18 7 24 17 360 349
286 269 261 256 244 254 263 263 155 5 292 311 292 174 194 334 177 138 241 214 222 145 121 61 265 49 32 46 78 57 67 354 88 127 97 79 46 18 25 46 25 360 348 41
280 264 258 253 239 245 260 163 228 210 228 277 285 117 135 110 60 310 193 226 214 180 195 235 104 82 78 83 123 115 98 85 101 109 89 69 34 65 48 21 2 17 38 11
271 255 249 241 230 231 230 246 184 217 228 245 271 144 158 169 181 184 109 71 123 174 291 47 94 96 97 15 109 109 102 103 99 103 80 52 65 46 17 23 18 1 349 353
257 241 236 226 221 237 251 244 270 202 197 250 274 114 145 182 214 158 170 180 88 348 1 87 87 123 110 81 118 114 109 112 92 73 57 83 64 33 31 16 357 355 354 352
226 208 204 189 204 199 214 211 254 200 208 303 269 210 126 182 223 139 182 227 152 105 346 173 144 191 178 146 136 132 131 102 85 56 72 56 36 31 35 5 360 11 360 352
181 163 169 201 190 159 153 188 177 192 215 243 257 310 172 178 214 150 134 239 169 170 204 109 89 92 119 135 133 127 118 111 95 95 60 31 64 53 30 27 16 4 3 6
151 217 234 160 166 174 213 202 207 196 208 212 241 257 315 185 179 169 154 167 250 130 207 142 198 135 138 135 124 122 120 105 108 106 87 103 86 46 35 42 28 34 41 51
179 227 238 141 187 209 214 201 215 179 208 198 190 214 223 222 141 82 34 176 54 21 156 222 151 120 142 140 141 144 139 139 112 100 111 87 54 33 70 62 64 60 54 39
179 236 241 189 194 187 206 201 177 213 165 192 175 188 188 85 109 90 162 242 197 135 194 202 114 147 150 155 149 151 152 153 114 127 117 92 61 75 85 76 65 60 41 43
210 232 275 201 202 203 227 226 207 204 214 155 173 182 114 122 142 137 208 191 179 201 221 179 147 146 137 137 144 153 152 134 133 126 117 90 88 83 73 84 47 40 30 36
257 266 227 224 252 256 205 229 234 240 166 158 165 110 107 144 153 210 62 131 223 216 63 125 141 141 144 153 148 154 141 129 137 130 114 92 87 91 63 67 44 51 35 31
249 235 288 315 317 307 278 224 220 169 151 171 139 109 88 119 151 213 185 237 216 121 125 129 139 140 140 146 156 140 140 139 149 138 115 105 106 77 54 83 24 13 25 30
262 219 280 294 289 308 310 322 304 154 158 158 109 120 177 179 220 177 184 242 117 118 124 132 142 147 151 155 147 145 137 136 157 120 98 134 106 142 90 83 92 59 9 34